This is the latest recevied weather packets stored in our database for station/object AE0NK. If no packets are shown the sender has not sent any weather packets the latest 10 day(s).
| Time | Temp. | Humidity | Pressure | Rain* | Wind** | Luminosity | Snow |
|---|---|---|---|---|---|---|---|
| 1777827206 | 18.33° C | 41% | 1008.5 hPa | 0 mm | - | 844 W/m² | - |
| 1777826903 | 18.33° C | 42% | 1008.5 hPa | 0 mm | - | 838 W/m² | - |
| 1777826601 | 18.33° C | 42% | 1008.6 hPa | 0 mm | - | 830 W/m² | - |
| 1777826299 | 18.33° C | 42% | 1008.8 hPa | 0 mm | - | 821 W/m² | - |
| 1777825996 | 17.78° C | 43% | 1008.9 hPa | 0 mm | - | 816 W/m² | - |
| 1777825695 | 17.78° C | 43% | 1008.7 hPa | 0 mm | - | 800 W/m² | - |
| 1777825393 | 17.22° C | 45% | 1008.8 hPa | 0 mm | - | 747 W/m² | - |
| 1777825111 | 17.22° C | 45% | 1008.9 hPa | 0 mm | - | 612 W/m² | - |
| 1777824809 | 17.22° C | 46% | 1009 hPa | 0 mm | - | 687 W/m² | - |
| 1777824506 | 16.67° C | 46% | 1009.2 hPa | 0 mm | - | 779 W/m² | - |
| 1777824202 | 16.11° C | 46% | 1009.2 hPa | 0 mm | - | 761 W/m² | - |
| 1777823898 | 16.11° C | 47% | 1009.4 hPa | 0 mm | - | 752 W/m² | - |
| 1777823594 | 16.11° C | 47% | 1009.4 hPa | 0 mm | - | 742 W/m² | - |
| 1777823293 | 16.11° C | 46% | 1009.5 hPa | 0 mm | - | 733 W/m² | - |
| 1777823010 | 16.11° C | 46% | 1009.5 hPa | 0 mm | - | 726 W/m² | - |
| 1777822706 | 16.11° C | 46% | 1009.7 hPa | 0 mm | - | 715 W/m² | - |
| 1777822404 | 16.11° C | 45% | 1009.8 hPa | 0 mm | - | 708 W/m² | - |
| 1777822101 | 15.56° C | 46% | 1009.7 hPa | 0 mm | - | 605 W/m² | - |
| 1777821799 | 16.11° C | 45% | 1009.8 hPa | 0 mm | - | 710 W/m² | - |
| 1777821497 | 16.11° C | 46% | 1009.9 hPa | 0 mm | - | 663 W/m² | - |
| 1777821196 | 15.56° C | 46% | 1009.8 hPa | 0 mm | - | 661 W/m² | - |
| 1777820893 | 15.56° C | 47% | 1010 hPa | 0 mm | - | 649 W/m² | - |
| 1777820610 | 15° C | 49% | 1010 hPa | 0 mm | - | 635 W/m² | - |
| 1777820305 | 14.44° C | 49% | 1010 hPa | 0 mm | - | 617 W/m² | - |
| 1777820002 | 13.89° C | 50% | 1010.1 hPa | 0 mm | - | 589 W/m² | - |
* Rain latest hour (hover to see other rain measurements)
** Current wind speed in m/s (hover to see current wind gust speed)